Retour au catalogue

COSMOS 2499 DEB

ActifPO
NORAD 49932·DEBRIS·🇷🇺 Russia

Lancé May 23, 2014 depuis Plesetsk Cosmodrome

Loading…

Prochains Passages (prochaines 24 heures)

TLE

VieillissantSource: Space-Track

Époque: Sep 10, 2026, 02:40 UTC

1 49932U 14028P   26253.11135214  .00008071  00000-0  16320-1 0  9997
2 49932  82.5525 179.2936 0387363  41.7509 321.2486 13.08877841146373

Suivez COSMOS 2499 DEB en temps réel avec AllMySat

Download on the App Store